Find Starlink 31342

NORAD ID: 59166 Int'l Des: 2024-044 Owner: SPXS Country: US Constellation: starlink operational
LEOCIRCULAR

Live Position

Loading 3D Globe...

About Starlink 31342

Description loading...

Upcoming Passes

Passes for default location (London). Set your location on the main map for personalized predictions.

Altitude History

Loading altitude history...

Two-Line Element Set

1 59166U 24044Q 26121.11183529 -.00002353 00000-0 -76125-4 0 9993
2 59166 43.0085 170.9123 0003192 278.6032 81.4458 15.27506429121617
Epoch: May 1, 2026 • Age: 10 hours

Current Status

Altitude 487.0 km
Velocity 7.63 km/s
Sub-Earth Point 37.60°N, 178.74°E
Launch Date Mar 4, 2024
Age 2.1 years
Type internet

Technical Details

Classification Payload
Mass 730.00 kg
Dry Mass 700.00 kg
Total Mass 730.00 kg
Length 0.30 m
Diameter 4.10 m
Span 29.00 m
Shape Box + pan
Manufacturer SPXS
Bus Type Starlink V2M
Phase Status In Orbit
Owner/State SPXS/US

Most Searched